This is the latest recevied weather packets stored in our database for station/object N8VDS-10. If no packets are shown the sender has not sent any weather packets the latest 10 day(s).
| Time | Temp. | Humidity | Pressure | Rain* | Wind** | Luminosity | Snow |
|---|---|---|---|---|---|---|---|
| 1777564913 | 9.44° C | 51% | 1018.3 hPa | 0 mm | - | 682 W/m² | - |
| 1777564608 | 8.89° C | 52% | 1018.3 hPa | 0 mm | - | 881 W/m² | - |
| 1777564304 | 8.89° C | 51% | 1018.2 hPa | 0 mm | - | 926 W/m² | - |
| 1777564000 | 8.33° C | 54% | 1018.3 hPa | 0 mm | - | 279 W/m² | - |
| 1777563697 | 8.89° C | 51% | 1018.3 hPa | 0 mm | - | 258 W/m² | - |
| 1777563393 | 8.89° C | 53% | 1018.5 hPa | 0 mm | - | 316 W/m² | - |
| 1777563088 | 8.33° C | 55% | 1018.4 hPa | 0 mm | - | 681 W/m² | - |
| 1777562783 | 8.33° C | 54% | 1018.5 hPa | 0 mm | - | 897 W/m² | - |
| 1777562482 | 8.33° C | 56% | 1018.3 hPa | 0 mm | - | 870 W/m² | - |
| 1777562179 | 8.33° C | 57% | 1018.5 hPa | 0 mm | - | 907 W/m² | - |
| 1777561876 | 8.33° C | 58% | 1018.4 hPa | 0 mm | - | 865 W/m² | - |
| 1777561574 | 8.89° C | 56% | 1018.4 hPa | 0 mm | - | 911 W/m² | - |
| 1777561269 | 8.33° C | 54% | 1018.5 hPa | 0 mm | - | 806 W/m² | - |
| 1777560969 | 8.89° C | 53% | 1018.2 hPa | 0 mm | - | 805 W/m² | - |
| 1777560665 | 7.78° C | 54% | 1018.1 hPa | 0 mm | - | 714 W/m² | - |
| 1777560363 | 7.78° C | 55% | 1018.3 hPa | 0 mm | - | 898 W/m² | - |
| 1777560060 | 7.78° C | 57% | 1018.2 hPa | 0 mm | - | 491 W/m² | - |
| 1777559756 | 8.33° C | 57% | 1018.3 hPa | 0 mm | - | 890 W/m² | - |
| 1777559453 | 7.78° C | 59% | 1018.3 hPa | 0 mm | - | 526 W/m² | - |
| 1777559150 | 7.78° C | 59% | 1018.3 hPa | 0 mm | - | 368 W/m² | - |
| 1777558850 | 7.78° C | 59% | 1018.2 hPa | 0 mm | - | 653 W/m² | - |
| 1777558546 | 7.22° C | 58% | 1018.1 hPa | 0 mm | - | 830 W/m² | - |
| 1777558242 | 7.22° C | 61% | 1018 hPa | 0 mm | - | 883 W/m² | - |
| 1777557938 | 7.22° C | 61% | 1018 hPa | 0 mm | - | 607 W/m² | - |
| 1777557635 | 7.78° C | 60% | 1018 hPa | 0 mm | - | 896 W/m² | - |
* Rain latest hour (hover to see other rain measurements)
** Current wind speed in m/s (hover to see current wind gust speed)